Location: Gadern
(49.5873°N, 8.8138°E)
Time: 20:38:01
(UTC+00:00)

IKONOS-2 - Pass Details

Date: 19 May 2025
Orbit: 577 x 585 km, 98.2° (Epoch: 20 June)

Event Time Altitude Azimuth Distance (km) Brightness Sun altitude
Rises 20:21:59 0° 16° (NNE) 2,806 8.4 -9.9°
Reaches altitude 10° 20:24:10 10° 19° (NNE) 1,903 7.5 -10.2°
Maximum altitude 20:28:16 67° 102° (ESE) 631 4.4 -10.6°
Drops below altitude 10° 20:32:21 10° 186° (S) 1,891 6.6 -11.0°
Enters shadow 20:33:15 - 188° (S) 2,262 7.1 -11.1°
